Dewpoint
1 0 -0 1 1 0 -2 -1 -1 -1 1 -1 -0 -2 -3 -2 -1 -1 -2 -3 -2 -3 -1 -2 -3 -3 -4 -4 -4 -1 -1 -1 1 0 0 2 3 5 6 7 6 5 6 6
1 1 2 1 0 -0 -3 0 -0 -4 0 -2 -2 -3 -2 -2 -2 -3 -3 -2 -3 -5 -4 -2 -3 -1 -4 -4 -4 -2 -3 -1 1 -1 -1 1 5 4 4 4 5 6 6 6
2 2 2 1 -1 -7 -6 -0 0 -1 -1 -2 -2 -3 -2 -2 -4 -3 -3 -3 -3 -3 -3 -5 -4 -4 -3 -4 -3 -2 -3 -1 1 2 4 4 3 4 4 4 6 6 6 5
2 1 1 -3 -0 -5 -4 -2 -1 -1 -2 -2 -3 -3 -3 -2 -2 -4 -4 -3 -2 -2 -1 -1 -2 -2 -2 -3 -3 -2 -2 2 -1 -1 1 2 2 3 3 5 5 5 5 5
3 2 1 2 1 -7 -6 -4 -2 -3 -3 -3 -3 -3 -2 -2 -2 -2 -2 -2 -2 -2 -1 -1 -0 -2 -2 -1 -2 -3 -1 1 -0 0 -1 1 2 2 3 3 4 6 5 5
3 3 3 3 1 -10 -10 -8 -4 -3 -3 -3 -3 -3 -2 -2 -3 -3 -3 -2 -1 -0 -1 -2 -2 -1 -2 -3 -2 -1 -1 0 1 -0 0 -0 1 2 3 2 2 4 6 5
3 3 2 2 2 -4 -10 -11 -8 -4 -3 -3 -4 -4 -4 -3 -3 -2 -3 -3 -1 -1 -2 -1 -1 -1 -1 -2 -2 -2 -0 0 0 0 -0 1 -1 0 0 2 1 2 3 2
2 2 2 1 -0 -2 -5 -11 -10 -7 -3 -4 -5 -6 -5 -4 -4 -3 -3 -3 -3 -2 -1 -1 -0 -0 -1 -1 -2 -2 -2 -0 1 1 -2 -1 1 1 1 2 2 1 2 2
-1 1 1 1 1 1 -2 -6 -10 -8 -5 -5 -7 -6 -6 -4 -4 -3 -3 -3 -3 -1 -1 -0 2 1 -1 -0 -1 -3 -3 -1 0 1 2 3 0 1 0 0 3 2 2 2
-9 -3 0 1 1 0 -3 -4 -6 -9 -7 -7 -8 -6 -6 -5 -4 -3 -3 -2 -2 -1 -0 0 1 -0 -2 0 -0 -0 -1 -0 1 1 0 0 -1 -0 0 4 1 2 2 2
-11 -9 -6 1 1 1 1 -1 -5 -7 -7 -8 -8 -8 -7 -6 -6 -3 -3 -2 -2 -1 -0 0 -0 -1 -2 -2 -2 -2 -1 -1 0 0 1 -0 0 1 3 1 2 2 2 2
-12 -10 -7 -6 0 1 1 1 -0 -6 -7 -8 -8 -9 -10 -8 -8 -6 -3 -1 -1 -0 -0 -0 -1 -2 -3 -3 -2 -3 -2 -2 -1 -1 -1 -1 0 1 1 -0 1 2 2 2
-13 -11 -10 -6 -1 1 1 1 1 -1 -5 -5 -6 -8 -9 -9 -9 -8 -5 -2 -1 -1 -1 -1 -1 -1 -3 -2 -3 -3 -3 -3 -2 -2 -3 0 1 1 1 1 0 2 1 2
-11 -12 -10 -7 -6 -3 1 2 1 -1 -7 -6 -7 -7 -9 -10 -8 -8 -8 -6 -2 -3 -3 -2 -1 -0 -3 -3 -4 -2 -4 -3 -2 -2 -3 -2 0 1 1 1 1 1 1 2
-7 -12 -10 -7 -2 1 -1 1 2 -1 -5 -5 -6 -7 -7 -6 -7 -6 -6 -6 -6 -3 -1 -2 -1 -1 -2 -2 -2 -2 -4 -3 -2 -2 -4 -3 -3 0 1 1 2 1 1 1
-3 -10 -8 -3 0 2 1 1 -1 -1 -4 -8 -3 -4 -5 -6 -6 -5 -5 -4 -3 -2 -1 -2 -2 -2 -2 -1 -1 -3 -4 -5 -6 -5 -5 -3 -3 -1 1 1 1 1 1 0
-1 -10 -6 0 1 1 1 0 -4 -7 -5 -7 -3 -3 -3 -5 -4 -4 -4 -3 -3 -3 -3 -2 -2 -2 -2 -2 -1 -4 -7 -6 -5 -5 -4 -1 -2 0 1 1 1 1 1 1
-0 -8 -5 -0 1 1 1 1 -2 -5 -7 -6 -6 -4 -5 -4 -4 -3 -3 -3 -3 -3 -4 -3 -3 -3 -2 -1 -3 -5 -6 -7 -6 -5 -4 -4 -2 0 1 1 1 1 -0 -0
-1 -6 -3 -0 0 1 0 1 1 1 -1 -2 -3 -5 -5 -4 -4 -3 -3 -3 -2 -3 -3 -3 -4 -3 -1 -3 -4 -5 -7 -5 -6 -4 -3 -2 -1 -0 1 1 1 0 -0 -1
-4 -3 -1 -0 -1 -0 0 -0 -0 -1 -1 -1 -2 -3 -4 -5 -4 -4 -2 -3 -2 -4 -3 -4 -3 -2 -5 -9 -12 -10 -10 -7 -5 -2 -1 -1 -0 -0 0 0 0 -1 -1 -0
-2 -2 -1 -1 -1 -0 -1 -1 -1 -1 -2 -2 -3 -4 -5 -5 -5 -4 -3 -5 -4 -4 -4 -3 -4 -2 -4 -13 -11 -10 -8 -9 -6 -7 -6 -3 -2 -1 -0 -0 -0 -1 -1 -2
-3 -1 -2 -2 -2 -1 -1 -1 -2 -1 -2 -3 -3 -3 -5 -5 -4 -2 -3 -4 -4 -3 -4 -3 -3 -4 -11 -12 -11 -8 -8 -8 -7 -6 -6 -4 -1 -1 -1 -1 -1 -2 -3 -5
-1 -1 -2 -2 -2 -1 -1 -2 -2 -2 -3 -3 -4 -5 -5 -4 -4 -2 -6 -3 -3 -5 -4 -3 -4 -10 -13 -9 -9 -10 -9 -8 -7 -5 -4 -3 -2 -1 -1 -2 -3 -3 -10 -16
-2 -2 -2 -2 -2 -2 -2 -4 -5 -4 -4 -3 -4 -4 -5 -4 -3 -5 -4 -5 -5 -3 -3 -4 -5 -8 -8 -10 -9 -9 -8 -7 -6 -4 -2 -2 -1 -1 -2 -4 -4 -11 -16 -19
-2 -2 -2 -3 -4 -4 -4 -4 -2 -3 -4 -4 -5 -4 -4 -6 -6 -4 -5 -3 -4 -5 -5 -5 -5 -7 -9 -9 -8 -6 -5 -4 -3 -2 -2 -1 -1 -2 -3 -6 -14 -18 -18 -15
-1 -2 -2 -3 -3 -4 -1 -2 -2 -3 -4 -5 -6 -8 -5 -6 -6 -4 -5 -7 -7 -8 -6 -7 -7 -12 -13 -8 -5 -5 -3 -2 -2 -1 -1 -2 -2 -3 -7 -15 -19 -17 -15 -18
-2 -2 -2 -3 -3 -3 -3 -2 -2 -2 -4 -7 -6 -5 -6 -8 -6 -4 -8 -7 -7 -9 -7 -9 -9 -9 -10 -9 -6 -4 -3 -1 -1 -1 -2 -2 -5 -12 -15 -19 -17 -15 -18 -16
Wind_Speed
16 14 10 10 6 24 26 11 3 8 10 4 3 2 1 8 5 2 1 2 3 2 4 1 1 2 6 3 3 5 4 3 4 6 4 5 2 5 5 2 6 3 3 4
13 11 8 8 13 19 20 8 6 8 12 3 3 2 4 6 2 3 3 2 2 1 2 2 3 4 5 4 1 0 3 3 5 8 3 3 4 9 13 6 2 11 3 5
6 4 6 8 18 23 11 4 3 6 6 6 1 3 1 2 6 3 2 0 2 2 3 4 3 1 4 4 2 6 1 3 3 2 3 3 6 10 13 9 3 7 10 9
1 3 1 7 18 17 7 5 2 2 3 7 5 5 2 2 3 4 3 2 3 3 2 5 2 4 3 2 3 3 3 3 3 5 6 3 4 9 13 12 11 7 10 10
3 4 6 9 12 10 9 3 4 5 5 10 7 5 5 2 1 5 4 2 4 5 3 2 2 4 2 1 4 1 1 3 4 4 6 3 3 9 9 9 11 5 10 7
6 5 6 6 6 11 5 4 1 2 3 5 3 3 3 4 3 2 4 5 4 3 1 5 8 9 10 6 2 2 1 1 4 4 6 3 4 2 4 3 10 7 6 5
4 4 6 6 3 6 10 8 3 3 2 2 1 4 6 5 3 4 2 6 4 3 7 12 13 16 17 13 9 8 2 2 2 4 5 4 4 4 2 2 7 8 9 10
3 4 4 5 4 1 4 8 3 1 1 1 5 5 2 5 6 3 5 3 5 6 9 3 4 1 2 6 7 7 7 0 3 1 1 5 2 4 2 2 2 6 5 8
5 5 5 4 4 4 1 2 5 0 3 3 3 2 1 2 2 5 3 6 3 4 2 2 2 2 2 1 2 5 3 2 3 2 1 3 3 3 4 2 1 4 8 7
7 6 5 5 4 5 4 2 3 2 3 4 3 4 4 3 0 1 3 3 2 3 2 2 2 3 1 1 2 3 2 2 4 4 3 6 3 6 4 2 4 7 9 10
7 5 6 6 4 5 3 4 4 5 3 7 5 6 6 5 5 3 1 3 2 2 1 1 3 1 3 2 4 3 4 4 3 2 3 6 10 4 4 5 10 13 11 11
9 7 5 7 6 4 6 5 5 6 6 6 9 13 13 14 10 7 5 3 2 2 0 2 2 3 3 2 3 2 3 5 2 6 5 3 12 3 6 11 13 10 11 10
10 8 7 7 9 8 7 6 6 7 6 8 8 5 7 12 13 11 6 5 5 3 1 2 3 3 3 2 5 3 3 4 2 3 2 6 12 8 10 11 10 11 10 10
10 9 8 7 8 10 8 5 5 5 2 3 4 5 6 5 11 13 14 11 5 4 4 3 3 2 3 3 4 4 6 6 4 5 6 4 12 15 14 12 10 9 8 7
10 9 8 8 9 10 11 9 9 8 5 3 7 13 14 13 11 11 12 13 11 5 3 3 3 4 2 4 2 5 11 7 6 6 14 10 6 23 19 17 13 9 7 5
10 9 7 6 5 8 9 5 5 9 10 3 2 4 4 5 7 8 9 9 9 6 4 5 5 4 3 2 4 10 15 20 22 8 10 26 8 16 22 19 15 11 9 7
10 8 7 7 3 7 5 1 2 2 7 3 5 4 2 1 3 3 5 8 6 6 4 6 5 5 6 3 7 8 13 12 21 20 13 10 15 19 24 19 16 14 11 9
11 8 8 9 9 9 11 9 5 1 4 4 1 3 3 6 4 4 6 4 6 7 5 4 4 3 5 5 16 28 27 23 19 23 23 18 19 20 26 22 22 19 15 12
11 8 9 9 10 8 8 10 10 11 9 3 5 3 4 8 5 4 6 7 3 4 4 5 5 3 6 13 18 24 21 17 25 27 23 19 22 25 28 27 24 21 19 16
12 11 7 6 6 8 2 4 4 6 8 8 6 7 3 11 8 4 3 4 3 2 6 5 4 5 25 39 45 40 24 23 22 30 27 24 27 30 31 31 25 22 20 18
19 10 7 8 7 7 5 3 4 4 4 8 8 17 6 9 3 3 7 3 2 2 4 5 3 4 9 25 26 29 37 29 33 31 29 34 32 32 31 28 24 23 21 18
18 13 10 11 6 5 3 3 3 5 5 7 6 7 10 7 7 3 5 3 1 6 2 1 3 6 21 16 15 16 15 30 32 32 28 29 31 29 30 28 26 22 20 17
21 7 7 8 6 5 6 7 4 3 6 10 10 2 9 7 8 3 3 4 6 1 1 4 5 20 22 15 17 15 13 20 30 32 28 25 28 29 30 28 24 21 19 15
7 10 7 7 6 8 7 6 5 9 6 16 16 6 3 4 4 3 3 5 2 3 4 6 5 18 16 15 12 11 12 19 28 31 29 27 31 32 29 25 23 21 18 15
9 9 7 8 11 11 12 20 8 10 13 22 9 3 5 1 1 4 0 2 5 6 5 4 9 13 17 15 13 11 16 22 28 30 30 30 31 31 29 25 22 19 16 15
8 10 5 9 11 7 10 19 23 15 21 16 6 4 3 5 4 6 9 5 7 5 4 9 17 21 21 15 12 11 18 22 26 29 29 30 31 30 27 25 20 17 15 13
9 7 22 20 12 16 21 19 19 22 25 3 4 7 13 2 2 5 5 6 4 10 17 24 23 16 14 13 12 10 17 24 26 27 28 29 28 26 25 23 20 17 14 12
Wind_Direction
47 64 75 66 38 8 3 15 24 359 350 35 20 9 29 130 156 156 184 41 7 57 163 159 41 219 207 244 311 316 222 200 278 257 208 143 287 317 318 316 336 303 315 344
46 56 55 21 357 349 355 6 338 3 357 63 2 349 17 44 54 43 24 100 340 59 126 37 226 206 239 239 333 27 310 287 328 347 12 47 2 356 358 335 300 11 348 354
75 53 11 3 350 341 337 21 13 339 351 340 253 114 76 23 25 23 6 296 263 289 212 194 206 308 208 191 211 306 216 272 175 178 279 278 355 1 358 355 350 332 21 345
204 6 352 357 1 13 36 34 22 20 315 342 16 22 355 111 351 343 325 254 41 10 342 354 106 10 354 206 245 277 169 284 303 274 228 197 42 9 5 12 359 18 334 6
319 297 308 336 7 14 29 46 31 357 329 338 353 5 343 6 357 8 335 28 346 63 78 83 318 14 31 256 314 205 205 283 303 289 247 138 41 21 2 5 360 338 352 37
338 357 338 341 21 45 53 51 13 336 333 345 41 303 352 346 15 322 340 332 351 55 355 303 285 288 288 245 234 254 234 322 343 284 312 1 357 17 31 349 8 349 3 27
357 349 354 6 3 43 46 33 80 113 289 79 321 349 3 349 17 322 334 342 3 320 307 295 269 258 266 265 265 213 283 337 253 270 1 4 235 176 255 72 16 21 20 18
346 352 0 19 4 348 71 45 38 157 175 202 12 354 343 345 332 305 316 305 308 323 321 346 328 335 247 247 237 211 208 152 307 111 216 279 250 208 189 80 44 357 35 353
320 289 302 323 334 318 313 52 38 319 151 229 240 187 297 193 276 329 263 301 304 325 283 359 315 251 240 239 276 221 229 176 118 322 79 246 220 173 114 105 286 33 38 12
317 311 305 297 322 340 349 304 322 318 281 222 182 198 179 190 198 208 294 301 299 292 331 301 254 284 179 294 254 182 231 216 192 254 247 285 264 131 114 93 206 123 94 69
315 301 285 284 303 320 324 315 330 298 272 275 262 225 211 194 186 146 324 358 330 32 356 218 284 279 265 338 257 204 187 170 211 185 237 289 153 101 173 158 137 138 121 111
316 306 276 256 256 294 328 317 317 301 276 265 267 274 258 238 237 191 187 179 250 228 193 341 314 318 331 224 287 329 268 190 207 181 225 252 186 217 183 161 152 154 139 124
305 300 279 256 238 246 261 301 315 313 296 288 270 260 264 241 232 229 190 187 203 178 16 244 258 271 124 256 255 269 263 201 223 12 264 211 200 191 179 177 165 161 153 140
295 295 278 259 254 250 237 253 288 294 293 282 281 269 272 250 240 233 232 227 218 263 258 232 227 226 202 243 250 215 226 153 207 264 271 250 237 209 192 184 182 168 161 159
287 287 276 256 261 253 244 239 258 253 250 266 291 286 276 266 248 232 236 243 240 226 224 210 229 233 271 259 290 243 197 195 185 222 216 200 257 206 195 183 186 185 189 174
277 284 266 237 250 210 201 248 259 241 231 277 314 295 289 286 245 230 230 233 238 227 220 240 245 221 224 259 255 252 236 231 231 225 242 209 246 201 198 199 192 187 186 190
264 260 240 211 198 187 195 218 137 351 185 239 299 302 286 333 192 211 218 220 216 231 241 231 243 223 214 233 244 242 244 244 231 229 209 183 188 191 200 202 194 198 198 203
249 241 221 201 217 228 235 241 237 6 203 256 142 267 277 192 192 196 188 191 207 220 235 248 218 201 217 256 247 254 251 248 234 212 211 228 202 186 186 193 192 198 201 203
233 216 201 200 225 231 227 248 256 245 223 229 202 178 242 183 212 202 181 180 200 217 222 232 175 213 225 238 259 262 251 227 218 203 206 200 195 189 191 191 195 196 192 195
197 172 161 204 211 217 186 239 225 215 210 224 236 213 221 173 176 207 207 222 242 201 223 183 206 247 253 253 255 258 255 229 211 192 200 193 195 193 192 196 199 199 199 201
177 173 181 184 173 181 206 235 207 192 243 222 231 212 158 188 140 202 212 212 237 267 246 176 230 257 238 262 269 264 250 237 225 232 229 217 207 195 193 192 193 194 200 206
182 168 154 160 182 199 201 196 201 221 235 204 193 198 191 162 170 163 207 223 106 256 164 278 258 246 258 254 275 281 256 229 223 224 224 214 208 203 196 192 191 194 198 197
153 160 153 163 176 202 206 190 216 213 207 191 170 153 162 154 180 191 111 221 231 106 215 240 243 261 271 272 291 293 263 221 215 214 214 208 201 197 195 190 192 192 191 194
160 162 181 206 189 208 202 195 176 201 191 175 161 125 149 155 155 158 210 236 61 255 244 241 243 272 302 319 308 275 246 215 210 205 203 198 191 188 189 193 191 190 192 192
176 184 207 214 220 212 214 219 203 180 181 161 140 113 174 191 156 195 90 252 251 219 234 240 326 339 330 319 307 259 228 209 205 201 195 192 189 186 184 185 186 188 190 186
211 218 202 210 181 227 196 201 210 199 175 154 153 134 144 235 188 172 212 153 220 249 235 299 328 334 329 318 283 250 226 216 208 200 194 191 189 188 185 182 186 189 188 190
217 216 203 191 195 200 206 202 202 197 165 178 155 163 212 115 180 220 191 208 218 262 295 316 317 306 302 299 274 244 218 211 204 199 195 191 187 186 186 184 183 185 188 191
Height
1509 1507 1508 1508 1507 1504 1502 1500 1501 1499 1496 1495 1494 1500 1492 1492 1492 1492 1492 1493 1493 1494 1499 1505 1511 1510 1505 1497 1496 1496 1491 1495 1495 1472 1462 1464 1466 1457 1449 1439 1438 1434 1428 1426
1513 1513 1512 1510 1508 1506 1504 1502 1504 1502 1500 1507 1503 1496 1496 1495 1493 1493 1493 1493 1492 1492 1493 1501 1498 1499 1494 1494 1495 1496 1493 1494 1493 1477 1466 1464 1464 1462 1455 1445 1444 1437 1431 1430
1514 1513 1513 1513 1512 1506 1504 1504 1507 1504 1502 1504 1502 1500 1499 1499 1497 1495 1495 1494 1492 1491 1491 1492 1494 1493 1494 1493 1494 1493 1493 1492 1484 1492 1481 1479 1470 1466 1461 1452 1446 1444 1438 1437
1515 1513 1513 1513 1511 1507 1506 1506 1508 1509 1513 1505 1505 1503 1501 1500 1501 1498 1496 1495 1494 1493 1493 1494 1494 1494 1494 1494 1492 1491 1492 1492 1477 1475 1473 1472 1471 1468 1463 1459 1455 1448 1447 1442
1515 1514 1513 1512 1510 1508 1509 1508 1508 1508 1507 1506 1507 1508 1506 1503 1502 1503 1498 1498 1496 1495 1497 1497 1498 1496 1495 1495 1493 1494 1490 1490 1478 1474 1468 1471 1472 1471 1469 1463 1460 1455 1449 1446
1516 1515 1512 1511 1509 1506 1505 1506 1507 1508 1508 1508 1509 1511 1508 1506 1504 1503 1502 1501 1500 1498 1498 1497 1495 1494 1493 1492 1492 1492 1491 1493 1486 1494 1467 1468 1479 1473 1472 1468 1464 1460 1455 1456
1516 1514 1512 1510 1508 1507 1506 1506 1504 1504 1509 1508 1510 1507 1507 1507 1507 1507 1503 1502 1501 1502 1498 1495 1493 1491 1490 1489 1487 1487 1488 1489 1485 1492 1479 1489 1473 1468 1467 1468 1466 1465 1461 1459
1515 1512 1511 1509 1509 1508 1506 1505 1505 1503 1506 1505 1506 1506 1506 1506 1506 1506 1505 1503 1502 1500 1498 1497 1494 1491 1488 1483 1483 1484 1485 1486 1492 1493 1507 1476 1466 1466 1467 1469 1470 1465 1466 1460
1514 1512 1510 1509 1508 1505 1505 1505 1504 1504 1503 1503 1502 1501 1503 1506 1506 1506 1503 1502 1501 1501 1499 1499 1496 1499 1482 1483 1480 1480 1482 1483 1493 1486 1486 1480 1460 1462 1464 1466 1473 1468 1464 1462
1513 1512 1510 1507 1506 1505 1505 1505 1505 1503 1503 1500 1499 1499 1499 1500 1502 1504 1503 1501 1501 1501 1502 1502 1502 1494 1484 1487 1483 1482 1483 1485 1490 1487 1491 1472 1457 1461 1463 1469 1474 1468 1468 1466
1510 1510 1509 1508 1507 1504 1504 1504 1502 1503 1501 1499 1498 1496 1497 1497 1497 1502 1501 1504 1502 1503 1504 1504 1498 1494 1489 1486 1480 1475 1481 1488 1489 1482 1477 1481 1459 1462 1466 1463 1465 1466 1468 1468
1508 1507 1506 1505 1504 1503 1503 1502 1501 1500 1499 1496 1495 1494 1494 1494 1495 1495 1497 1500 1501 1501 1503 1500 1498 1495 1492 1489 1490 1474 1480 1474 1473 1474 1466 1456 1456 1457 1457 1459 1461 1465 1466 1467
1505 1505 1503 1502 1502 1502 1501 1500 1501 1500 1499 1495 1493 1489 1491 1491 1492 1493 1495 1496 1497 1499 1499 1499 1498 1498 1493 1493 1487 1474 1469 1466 1468 1466 1455 1453 1454 1455 1457 1458 1460 1462 1464 1466
1500 1501 1501 1500 1499 1498 1499 1498 1499 1498 1497 1497 1492 1490 1489 1487 1489 1491 1493 1493 1494 1496 1497 1497 1497 1496 1487 1487 1481 1478 1468 1466 1464 1462 1454 1453 1451 1451 1453 1455 1458 1459 1461 1463
1497 1497 1496 1496 1496 1495 1495 1496 1495 1496 1498 1494 1489 1488 1486 1487 1486 1487 1490 1492 1492 1493 1495 1494 1494 1487 1486 1479 1477 1468 1455 1453 1458 1455 1443 1444 1443 1446 1451 1453 1455 1457 1458 1459
1492 1495 1495 1494 1492 1492 1495 1494 1493 1492 1494 1495 1493 1489 1486 1486 1486 1486 1486 1489 1492 1492 1490 1489 1484 1481 1483 1483 1475 1446 1444 1444 1443 1442 1441 1442 1443 1444 1449 1452 1454 1457 1459 1460
1489 1489 1490 1492 1492 1492 1494 1495 1494 1493 1495 1493 1489 1486 1485 1484 1485 1485 1485 1486 1488 1489 1488 1483 1481 1479 1479 1476 1462 1438 1438 1438 1439 1439 1440 1441 1441 1441 1446 1450 1453 1456 1458 1460
1485 1486 1487 1490 1491 1492 1492 1492 1492 1492 1494 1493 1491 1484 1484 1481 1482 1482 1482 1482 1484 1482 1480 1477 1475 1475 1473 1463 1434 1428 1432 1434 1433 1434 1435 1436 1438 1441 1445 1448 1451 1453 1455 1457
1481 1483 1485 1489 1489 1489 1488 1489 1489 1489 1492 1487 1486 1486 1484 1479 1480 1480 1479 1476 1477 1476 1473 1471 1471 1467 1459 1431 1424 1422 1423 1424 1425 1430 1431 1434 1435 1437 1440 1443 1447 1450 1454 1456
1476 1479 1483 1485 1486 1485 1487 1486 1486 1485 1484 1482 1476 1471 1473 1474 1477 1479 1481 1479 1473 1473 1459 1460 1459 1447 1432 1420 1410 1410 1417 1419 1422 1424 1425 1428 1430 1433 1435 1438 1443 1447 1450 1453
1471 1473 1475 1479 1481 1484 1483 1484 1485 1483 1480 1472 1466 1463 1465 1470 1475 1477 1475 1474 1472 1475 1454 1451 1450 1435 1408 1402 1401 1402 1405 1411 1413 1416 1420 1421 1425 1428 1432 1436 1440 1443 1447 1449
1463 1467 1471 1476 1480 1481 1480 1478 1479 1474 1466 1462 1460 1460 1462 1464 1468 1471 1473 1473 1469 1467 1454 1456 1443 1409 1393 1393 1394 1394 1394 1398 1404 1408 1413 1417 1421 1426 1429 1433 1437 1440 1444 1446
1460 1466 1467 1467 1472 1473 1470 1469 1466 1463 1452 1452 1452 1457 1457 1461 1464 1467 1471 1470 1464 1453 1456 1444 1425 1392 1386 1389 1391 1390 1390 1392 1396 1401 1407 1412 1417 1422 1426 1429 1434 1437 1441 1443
1454 1456 1461 1458 1452 1447 1441 1439 1441 1441 1443 1448 1454 1456 1457 1458 1460 1462 1467 1459 1458 1456 1453 1437 1400 1391 1391 1388 1387 1386 1386 1389 1392 1396 1402 1407 1412 1417 1423 1427 1430 1433 1437 1440
1445 1445 1438 1434 1430 1427 1427 1431 1433 1433 1436 1443 1450 1455 1458 1460 1461 1456 1460 1458 1456 1447 1433 1409 1397 1394 1391 1389 1386 1386 1387 1388 1390 1394 1398 1404 1409 1414 1419 1423 1427 1431 1434 1436
1435 1427 1422 1419 1422 1423 1424 1425 1429 1431 1433 1438 1443 1448 1455 1456 1451 1451 1448 1454 1446 1423 1410 1403 1401 1396 1392 1390 1389 1387 1389 1391 1393 1395 1398 1403 1408 1412 1416 1419 1424 1427 1430 1432
1415 1408 1407 1407 1409 1412 1416 1420 1424 1429 1432 1434 1436 1443 1441 1436 1442 1437 1431 1428 1412 1403 1400 1398 1396 1395 1393 1388 1386 1384 1386 1391 1394 1397 1399 1403 1408 1412 1415 1416 1420 1424 1427 1429